Date_and_time,latitude,longitude,wind_speed,RelWindDirFrom,WindDirFrom,air_pressure,air_temperature,relative_humidity,Temp,platform_speed_wrt_ground,air_pressure_at_mean_sea_level,platform_orientation
2019-08-06 23:40,50.6304216666667,-96.9807716666667,10.4,15.7,342,979.15,22.3,60,22.94,0.0,1004.45,191.1
2019-08-06 23:50,50.6304533333333,-96.98077,8.9,13.7,344,979.24,22.4,60,22.90,0.0,1004.64,191.1
2019-08-07 00:00,50.6304483333333,-96.9807766666667,8.5,12.3,353,979.24,22.6,60,22.90,0.0,1004.71,195.2
2019-08-07 00:10,50.630445,-96.9807733333333,8.5,12.9,339,979.29,22.5,57,22.92,0.0,1004.80,195.2
2019-08-07 00:20,50.630445,-96.9807716666667,7.2,11.7,353,979.31,22.6,58,22.94,0.0,1004.82,195.2
2019-08-07 00:30,50.630445,-96.98077,9.9,13.8,1,979.23,22.5,63,22.96,0.0,1004.74,195.2
2019-08-07 00:40,50.6304116666667,-96.98073,10.2,14.7,352,979.22,22.1,61,22.97,0.0,1004.73,195.2
2019-08-07 00:50,50.6304383333333,-96.9807683333333,10.5,14.7,6,979.21,22.0,58,22.96,0.0,1004.73,195.2
2019-08-07 01:00,50.630445,-96.9807916666667,10.7,14.7,6,979.31,21.7,55,22.95,0.0,1004.84,213.8
2019-08-07 01:10,50.63044,-96.98078,8.2,11.8,356,979.39,21.6,53,22.95,0.0,1004.94,213.8
2019-08-07 01:20,50.6304433333333,-96.98078,7.5,11.8,356,979.53,21.5,55,22.93,0.0,1005.09,213.8
2019-08-07 01:30,50.6304433333333,-96.9807783333333,9.5,13.9,2,979.51,21.5,55,22.92,0.0,1005.06,213.8
2019-08-07 01:40,50.6304433333333,-96.9807766666667,7.6,12.1,2,979.59,21.5,54,22.93,0.0,1005.14,213.8
2019-08-07 01:50,50.630445,-96.9807766666667,4.2,6.7,337,979.76,21.1,53,22.91,0.0,1005.33,213.8
2019-08-07 02:00,50.6304483333333,-96.9807833333333,4.5,5.8,338,979.82,20.8,54,22.91,0.0,1005.40,270.0
2019-08-07 02:10,50.63044,-96.9807683333333,4.0,5.9,331,979.90,20.5,54,22.92,0.0,1005.49,270.0
2019-08-07 02:20,50.6304466666667,-96.9807666666667,3.6,5.1,329,979.96,20.3,54,22.91,0.0,1005.57,270.0
2019-08-07 02:30,50.6304666666667,-96.9807783333333,3.9,5.4,327,980.03,20.1,54,22.91,0.0,1005.67,270.0
2019-08-07 02:40,50.6304566666667,-96.98078,4.3,5.6,325,980.08,19.9,54,22.91,0.0,1005.74,270.0
2019-08-07 02:50,50.6304416666667,-96.9807883333333,4.0,6.3,322,980.16,19.7,54,22.90,0.0,1005.83,270.0
2019-08-07 03:00,50.6304566666667,-96.980765,4.6,6.4,324,980.36,19.5,55,22.89,0.0,1006.05,48.3
2019-08-07 03:10,50.630455,-96.9807666666667,4.3,5.7,320,980.37,19.4,56,22.88,0.0,1006.07,48.3
2019-08-07 03:20,50.6304466666667,-96.9807716666667,4.6,5.8,314,980.49,19.3,55,22.89,0.0,1006.20,48.3
2019-08-07 03:30,50.6304533333333,-96.9807666666667,3.9,5.1,316,980.53,19.1,57,22.90,0.0,1006.26,48.3
2019-08-07 03:40,50.630455,-96.9807666666667,2.9,4.7,309,980.55,19.0,57,22.89,0.0,1006.30,48.3
2019-08-07 03:50,50.630455,-96.9807666666667,3.1,4.2,305,980.62,19.0,57,22.90,0.0,1006.38,48.3
2019-08-07 04:00,50.630455,-96.9807666666667,2.9,3.8,281,980.71,18.5,61,22.89,0.0,1006.51,57.7
2019-08-07 04:10,50.630455,-96.9807666666667,2.9,4.4,287,980.72,18.1,62,22.88,0.0,1006.55,57.7
2019-08-07 04:20,50.6304566666667,-96.9807683333333,3.3,4.5,285,980.71,18.0,62,22.88,0.0,1006.55,57.7
2019-08-07 04:30,50.630455,-96.9807683333333,3.2,4.4,282,980.78,17.9,63,22.86,0.0,1006.63,57.7
2019-08-07 04:40,50.630455,-96.9807683333333,3.4,4.5,267,980.81,17.5,66,22.84,0.0,1006.69,57.7
2019-08-07 04:50,50.63046,-96.980775,3.8,5.1,282,980.82,17.3,67,22.80,0.0,1006.72,57.7
2019-08-07 05:00,50.6304566666667,-96.9807716666667,3.3,5.0,278,980.81,17.3,67,22.78,0.0,1006.72,60.8
2019-08-07 05:10,50.6304583333333,-96.980775,3.4,4.7,265,980.74,17.1,67,22.77,0.0,1006.65,60.8
2019-08-07 05:20,50.6304566666667,-96.9807733333333,4.5,5.4,260,980.77,16.8,69,22.76,0.0,1006.71,60.8
2019-08-07 05:30,50.6304566666667,-96.9807716666667,4.7,6.0,265,980.77,16.5,71,22.74,0.0,1006.73,60.8
2019-08-07 05:40,50.6304566666667,-96.9807733333333,4.4,5.6,270,980.80,16.6,70,22.73,0.0,1006.75,60.8
2019-08-07 05:50,50.6304566666667,-96.9807733333333,4.9,7.6,278,980.69,16.7,69,22.72,0.0,1006.66,60.8
2019-08-07 06:00,50.630465,-96.9808,5.0,8.5,283,980.78,16.4,70,22.71,0.0,1006.78,309.1
2019-08-07 06:10,50.630465,-96.9807783333333,5.6,8.1,280,980.85,16.4,69,22.69,0.0,1006.86,309.1
2019-08-07 06:20,50.6304633333333,-96.980775,5.0,7.3,282,980.90,16.5,70,22.69,0.0,1006.91,309.1
2019-08-07 06:30,50.630445,-96.98078,5.9,9.3,292,981.00,16.8,69,22.70,0.0,1007.02,309.1
2019-08-07 06:40,50.6304433333333,-96.9807816666667,8.4,15.4,307,981.00,17.3,66,22.69,0.0,1007.01,309.1
2019-08-07 06:50,50.6304483333333,-96.9807883333333,8.6,13.8,314,981.08,17.2,68,22.69,0.0,1007.09,309.1
2019-08-07 07:00,50.6304466666667,-96.980785,7.7,12.8,309,981.13,16.8,71,22.67,0.0,1007.17,248.5
2019-08-07 07:10,50.6304466666667,-96.9807866666667,5.6,8.8,304,981.18,16.6,73,22.65,0.0,1007.25,248.5
2019-08-07 07:20,50.6304633333333,-96.9807983333333,6.9,9.3,313,981.20,16.6,72,22.64,0.0,1007.27,248.5
2019-08-07 07:30,50.630455,-96.9807883333333,6.6,9.3,307,981.29,16.6,72,22.63,0.0,1007.36,248.5
2019-08-07 07:40,50.63045,-96.9807733333333,6.2,10.2,298,981.42,16.5,72,22.62,0.0,1007.50,248.5
2019-08-07 07:50,50.63045,-96.9807716666667,5.9,9.1,304,981.46,16.3,72,22.58,0.0,1007.56,248.5
2019-08-07 08:00,50.6304483333333,-96.980775,6.3,9.0,314,981.35,16.3,72,22.56,0.0,1007.45,142.0
2019-08-07 08:10,50.6304233333333,-96.9807733333333,5.9,9.4,311,981.40,16.1,72,22.55,0.0,1007.50,142.0
2019-08-07 08:20,50.6304516666667,-96.9807683333333,5.0,7.7,303,981.47,16.0,73,22.55,0.0,1007.57,142.0
2019-08-07 08:30,50.63046,-96.98077,4.6,8.3,288,981.57,15.7,74,22.54,0.0,1007.67,142.0
2019-08-07 08:40,50.6304566666667,-96.9807716666667,4.3,8.1,287,981.62,15.5,75,22.53,0.0,1007.73,142.0
2019-08-07 08:50,50.6304566666667,-96.9807733333333,5.1,9.0,305,981.56,15.4,75,22.52,0.0,1007.69,142.0
2019-08-07 09:00,50.630455,-96.980775,5.9,8.7,308,981.56,15.3,74,22.51,0.0,1007.69,137.0
2019-08-07 09:10,50.630455,-96.9807733333333,5.8,10.7,300,981.67,15.3,73,22.50,0.0,1007.82,137.0
2019-08-07 09:20,50.6304533333333,-96.9807733333333,6.2,10.0,299,981.71,15.2,72,22.50,0.0,1007.87,137.0
2019-08-07 09:30,50.630455,-96.980775,6.0,9.4,300,981.70,15.1,71,22.49,0.0,1007.86,137.0
2019-08-07 09:40,50.630455,-96.980775,6.2,10.0,300,981.74,14.9,72,22.49,0.0,1007.92,137.0
2019-08-07 09:50,50.6304583333333,-96.980765,6.3,10.3,302,981.87,14.7,72,22.48,0.0,1008.06,137.0
2019-08-07 10:00,50.6304883333333,-96.9808033333333,6.0,8.9,309,981.91,14.5,72,22.46,0.0,1008.11,360.0
2019-08-07 10:10,50.6304333333333,-96.980765,6.1,9.6,305,981.93,14.4,72,22.45,0.0,1008.15,360.0
2019-08-07 10:20,50.6304483333333,-96.9807766666667,6.6,10.3,301,982.08,14.2,73,22.45,0.0,1008.32,360.0
2019-08-07 10:30,50.6304466666667,-96.9807733333333,6.4,10.3,305,982.12,14.0,74,22.44,0.0,1008.39,360.0
2019-08-07 10:40,50.6304483333333,-96.980775,6.6,9.6,302,982.21,13.9,74,22.42,0.0,1008.48,360.0
2019-08-07 10:50,50.6304483333333,-96.9807783333333,6.2,9.4,305,982.29,13.8,75,22.40,0.0,1008.58,360.0
2019-08-07 11:00,50.6304466666667,-96.9807733333333,6.5,10.9,300,982.43,13.7,76,22.40,0.0,1008.73,0.0
2019-08-07 11:10,50.6304466666667,-96.9807733333333,6.4,9.3,307,982.46,13.6,77,22.39,0.0,1008.77,0.0
2019-08-07 11:20,50.63044,-96.98076,6.6,9.8,304,982.52,13.6,76,22.38,0.0,1008.83,0.0
2019-08-07 11:30,50.6304516666667,-96.9807716666667,4.3,8.0,293,982.68,13.6,77,22.37,0.0,1009.01,0.0
2019-08-07 11:40,50.63045,-96.9807766666667,4.4,7.4,294,982.75,13.5,77,22.36,0.0,1009.09,0.0
2019-08-07 11:50,50.6304266666667,-96.9807816666667,4.3,6.3,293,982.81,13.4,77,22.35,0.0,1009.16,0.0
2019-08-07 12:00,50.6304516666667,-96.9807716666667,4.2,6.5,293,982.84,13.5,76,22.34,0.0,1009.20,90.0
2019-08-07 12:10,50.63044,-96.980775,5.2,8.4,296,982.85,13.5,75,22.33,0.0,1009.22,90.0
2019-08-07 12:20,50.63044,-96.9807766666667,4.9,7.8,289,982.97,13.5,75,22.32,0.0,1009.35,90.0
2019-08-07 12:30,50.62741,-96.9700166666667,2.8,7.8,275,983.13,13.7,75,22.26,2.7,1009.50,90.0
2019-08-07 12:40,50.6094216666667,-96.936795,2.3,8.3,225,983.14,14.5,73,22.22,10.0,1009.49,90.0
2019-08-07 12:50,50.583785,-96.9125216666667,4.6,9.0,228,983.09,15.3,71,22.22,10.8,1009.40,90.0
2019-08-07 13:00,50.55888,-96.8853483333333,4.0,8.4,261,983.13,15.8,69,22.29,10.9,1009.42,139.7
2019-08-07 13:10,50.54116,-96.8645316666667,7.2,16.3,290,983.17,17.9,61,22.48,8.0,1009.37,139.7
2019-08-07 13:20,50.535175,-96.8580983333333,12.2,15.8,296,983.26,20.2,54,22.54,2.6,1009.36,139.7
2019-08-07 13:30,50.529005,-96.851905,12.8,16.2,300,983.24,19.5,56,22.57,2.6,1009.38,139.7
2019-08-07 13:40,50.52283,-96.8455833333333,14.0,19.0,301,983.16,18.3,59,22.59,2.7,1009.36,139.7
2019-08-07 13:50,50.51733,-96.8329516666667,12.8,18.0,320,983.09,16.5,64,22.60,3.5,1009.36,139.7
2019-08-07 14:00,50.5172933333333,-96.8331266666667,15.6,18.3,325,982.66,15.6,66,22.61,0.0,1008.96,140.3
2019-08-07 14:10,50.5173,-96.8330433333333,15.2,17.8,327,982.65,15.8,66,22.61,0.0,1008.94,140.3
2019-08-07 14:20,50.517285,-96.8330733333333,15.0,18.5,331,982.72,15.8,65,22.61,0.0,1009.00,140.3
2019-08-07 14:30,50.5172716666667,-96.83314,13.9,16.6,325,982.94,15.9,65,22.62,0.0,1009.19,140.3
2019-08-07 14:40,50.5173133333333,-96.8330366666667,13.6,17.7,321,983.06,15.9,63,22.63,0.0,1009.28,140.3
2019-08-07 14:50,50.5172883333333,-96.8330266666667,12.7,16.7,311,983.13,16.0,62,22.62,0.0,1009.32,140.3
2019-08-07 15:00,50.5133316666667,-96.8315783333333,11.4,14.9,302,983.15,16.1,59,22.62,1.5,1009.24,141.0
2019-08-07 15:10,50.482845,-96.8340333333333,12.9,17.4,252,983.16,16.6,59,22.58,11.0,1009.12,141.0
2019-08-07 15:20,50.4631783333333,-96.834055,9.1,13.6,263,983.26,16.9,57,22.44,7.1,1009.24,141.0
2019-08-07 15:30,50.4559216666667,-96.835015,10.8,16.7,286,983.29,17.6,54,22.40,2.6,1009.29,141.0
2019-08-07 15:40,50.44867,-96.836345,12.2,15.2,288,983.26,17.9,52,22.42,2.6,1009.34,141.0
2019-08-07 15:50,50.4412816666667,-96.8357633333333,12.2,17.3,292,983.25,18.7,51,22.43,2.7,1009.33,141.0
2019-08-07 16:00,50.43362,-96.8334216666667,12.3,17.7,284,983.21,18.8,49,22.40,2.8,1009.27,165.2
2019-08-07 16:10,50.43357,-96.8334266666667,13.7,18.0,293,982.98,17.2,51,22.37,0.0,1009.11,165.2
2019-08-07 16:20,50.433495,-96.833545,12.6,16.6,301,982.94,17.3,50,22.37,0.0,1009.06,165.2
2019-08-07 16:30,50.4338383333333,-96.8336216666667,12.5,17.9,313,982.98,17.2,52,22.36,0.1,1009.11,165.2
2019-08-07 16:40,50.4335283333333,-96.8334866666667,12.4,16.0,289,982.91,17.3,53,22.36,0.1,1009.03,165.2
2019-08-07 16:50,50.4335666666667,-96.8334233333333,12.1,17.9,301,982.85,17.5,50,22.37,0.0,1008.95,165.2
2019-08-07 17:00,50.4335883333333,-96.83348,11.3,15.8,289,982.90,17.6,48,22.37,0.0,1008.97,360.0
2019-08-07 17:10,50.4335983333333,-96.8333533333333,13.6,16.1,281,982.67,17.8,51,22.38,0.0,1008.71,360.0
2019-08-07 17:20,50.43355,-96.8334366666667,10.3,13.6,285,982.72,17.9,51,22.39,0.0,1008.72,360.0
2019-08-07 17:30,50.4335883333333,-96.8333633333333,13.0,18.6,294,982.50,18.1,50,22.40,0.0,1008.49,360.0
2019-08-07 17:40,50.4335266666667,-96.83355,14.2,18.6,303,982.43,18.2,48,22.41,0.0,1008.36,360.0
2019-08-07 17:50,50.433645,-96.833315,14.1,18.0,297,982.39,18.4,47,22.42,0.1,1008.31,360.0
2019-08-07 18:00,50.4336033333333,-96.8333616666667,14.6,19.5,292,982.35,18.6,44,22.42,0.0,1008.33,180.7
2019-08-07 18:10,50.4336316666667,-96.8333166666667,14.1,17.9,296,982.28,18.7,42,22.43,0.0,1008.25,180.7
2019-08-07 18:20,50.43358,-96.8333766666667,15.9,22.0,295,982.05,18.9,43,22.45,0.0,1008.01,180.7
2019-08-07 18:30,50.4335133333333,-96.833515,15.3,21.9,301,982.13,19.0,42,22.47,0.0,1008.08,180.7
2019-08-07 18:40,50.4336483333333,-96.8333583333333,16.1,20.0,297,982.05,19.2,43,22.48,0.1,1007.99,180.7
2019-08-07 18:50,50.433695,-96.83345,14.7,20.3,302,982.04,19.3,42,22.49,0.0,1007.97,180.7
2019-08-07 19:00,50.434085,-96.8345566666667,15.2,24.2,299,982.04,19.4,43,22.51,0.3,1007.95,303.3
2019-08-07 19:10,50.4406733333333,-96.7930016666667,10.0,18.1,328,982.49,19.2,43,22.53,9.8,1008.41,303.3
2019-08-07 19:20,50.44766,-96.7494333333333,8.4,11.7,346,982.47,19.2,43,22.57,10.3,1008.39,303.3
2019-08-07 19:30,50.450715,-96.731805,13.3,16.7,322,982.31,19.2,45,22.57,4.2,1008.22,303.3
2019-08-07 19:40,50.4518633333333,-96.7195366666667,13.4,17.6,312,982.21,19.3,46,22.57,2.8,1008.10,303.3
2019-08-07 19:50,50.4532866666667,-96.70776,12.4,16.3,317,982.28,19.4,45,22.61,2.7,1008.16,303.3
2019-08-07 20:00,50.45587,-96.6945683333333,12.9,17.3,322,982.29,19.4,46,22.66,3.2,1008.17,75.8
2019-08-07 20:10,50.4581083333333,-96.68849,12.3,17.2,306,982.10,19.6,46,22.71,1.6,1007.96,75.8
2019-08-07 20:20,50.4581233333333,-96.6884983333333,15.1,19.4,306,981.91,19.8,46,22.73,0.0,1007.75,75.8
2019-08-07 20:30,50.4581533333333,-96.6884433333333,13.4,15.9,307,981.95,19.9,46,22.73,0.0,1007.78,75.8
2019-08-07 20:40,50.4580883333333,-96.6885366666667,14.0,19.2,298,981.81,20.0,45,22.72,0.0,1007.62,75.8
2019-08-07 20:50,50.4604633333333,-96.6723766666667,11.5,20.0,309,982.07,19.9,46,22.73,3.8,1007.89,75.8
2019-08-07 21:00,50.4604783333333,-96.660495,13.9,17.6,316,982.04,19.9,47,22.86,2.7,1007.86,76.2
2019-08-07 21:10,50.4609066666667,-96.6480333333333,12.4,15.9,304,982.05,19.9,45,22.95,2.9,1007.88,76.2
2019-08-07 21:20,50.461435,-96.6356166666667,14.4,21.2,303,981.99,20.0,47,23.05,2.9,1007.81,76.2
2019-08-07 21:30,50.46244,-96.621605,14.6,18.9,306,981.90,20.2,45,23.05,3.2,1007.71,76.2
2019-08-07 21:40,50.4623966666667,-96.621655,15.3,20.6,301,981.58,20.6,46,23.02,0.0,1007.36,76.2
2019-08-07 21:50,50.4624383333333,-96.6215616666667,15.6,21.6,295,981.59,20.6,45,23.01,0.0,1007.36,76.2
2019-08-07 22:00,50.4698416666667,-96.6256866666667,17.7,25.8,298,981.43,20.7,45,23.02,2.8,1007.19,74.9
2019-08-07 22:10,50.4971,-96.6389933333333,23.8,28.9,309,980.88,20.7,46,23.03,10.3,1006.62,74.9
2019-08-07 22:20,50.524465,-96.6520033333333,25.1,30.0,321,980.90,20.7,46,23.05,10.3,1006.63,74.9
2019-08-07 22:30,50.5312166666667,-96.6530516666667,18.2,23.4,298,981.60,20.7,47,23.01,2.4,1007.34,74.9
2019-08-07 22:40,50.53716,-96.65631,19.2,23.6,301,981.44,21.0,44,22.98,2.3,1007.17,74.9
2019-08-07 22:50,50.5431716666667,-96.66076,19.8,25.1,303,981.26,21.1,44,22.95,2.4,1006.99,74.9
2019-08-07 23:00,50.552215,-96.665075,22.4,27.9,300,980.95,20.9,44,22.94,3.4,1006.67,11.0
2019-08-07 23:10,50.5583766666667,-96.6665716666667,20.9,27.0,298,981.14,21.2,43,22.95,2.2,1006.85,11.0
2019-08-07 23:20,50.5583116666667,-96.6666333333333,18.1,25.3,304,981.29,21.2,43,22.97,0.0,1007.00,11.0
2019-08-07 23:30,50.5584083333333,-96.6664616666667,18.9,26.1,300,981.13,21.3,42,22.96,0.1,1006.81,11.0
2019-08-07 23:40,50.568,-96.6636233333333,21.0,28.3,309,980.94,21.4,43,22.96,3.5,1006.61,11.0
2019-08-07 23:50,50.5974583333333,-96.65684,26.8,31.3,317,980.44,21.2,43,23.01,10.7,1006.10,11.0
